Time,TemperatureF,DewpointF,PressureIn,WindDirection,WindDirectionDegrees,WindSpeedMPH,WindSpeedGustMPH,Humidity,HourlyPrecipIn,Conditions,Clouds,dailyrainin,SoftwareType,DateUTC
2013-02-20 00:04:00,30.2,13.3,29.20,North,0,4.9,5.8,49,0.00,CLR,,0.00,WeatherDisplay:10.37,2013-02-20 06:04:00,
2013-02-20 00:09:00,30.6,13.6,29.20,North,3,3.1,4.6,49,0.00,CLR,,0.00,WeatherDisplay:10.37,2013-02-20 06:09:00,
2013-02-20 00:15:00,30.6,13.6,29.20,North,0,3.1,3.5,49,0.00,CLR,,0.00,WeatherDisplay:10.37,2013-02-20 06:15:00,
2013-02-20 00:20:00,30.4,13.5,29.20,NNW,345,4.0,4.6,49,0.00,CLR,,0.00,WeatherDisplay:10.37,2013-02-20 06:20:00,
2013-02-20 00:25:00,30.4,13.5,29.20,North,357,2.7,3.5,49,0.00,CLR,,0.00,WeatherDisplay:10.37,2013-02-20 06:25:00,
2013-02-20 00:30:00,30.2,13.3,29.20,North,353,3.1,3.5,49,0.00,CLR,,0.00,WeatherDisplay:10.37,2013-02-20 06:30:00,
2013-02-20 00:35:00,30.0,13.1,29.20,North,353,3.1,3.5,49,0.00,CLR,,0.00,WeatherDisplay:10.37,2013-02-20 06:35:00,
2013-02-20 00:40:00,29.8,13.0,29.20,North,11,2.2,3.5,49,0.00,CLR,,0.00,WeatherDisplay:10.37,2013-02-20 06:40:00,
2013-02-20 00:45:00,29.7,12.8,29.20,North,4,2.7,3.5,49,0.00,CLR,,0.00,WeatherDisplay:10.37,2013-02-20 06:45:00,
2013-02-20 00:50:00,29.7,12.8,29.20,North,3,3.1,3.5,49,0.00,CLR,,0.00,WeatherDisplay:10.37,2013-02-20 06:50:00,
2013-02-20 00:55:00,29.7,12.8,29.20,North,11,2.7,3.5,49,0.00,CLR,,0.00,WeatherDisplay:10.37,2013-02-20 06:55:00,
2013-02-20 01:00:00,29.5,12.6,29.20,NNE,23,3.6,3.6,49,0.00,CLR,,0.00,WeatherDisplay:10.37,2013-02-20 07:00:00,
2013-02-20 01:05:00,29.7,12.8,29.20,North,0,3.6,5.8,49,0.00,CLR,,0.00,WeatherDisplay:10.37,2013-02-20 07:05:00,
2013-02-20 01:10:00,29.7,12.8,29.20,North,0,2.7,3.5,49,0.00,CLR,,0.00,WeatherDisplay:10.37,2013-02-20 07:10:00,
2013-02-20 01:15:00,29.7,12.8,29.20,NNE,21,3.1,3.5,49,0.00,CLR,,0.00,WeatherDisplay:10.37,2013-02-20 07:15:00,
2013-02-20 01:20:00,29.5,12.6,29.20,North,357,0.0,2.3,49,0.00,CLR,,0.00,WeatherDisplay:10.37,2013-02-20 07:20:00,
2013-02-20 01:25:00,29.1,12.3,29.20,ENE,57,3.1,3.5,49,0.00,CLR,,0.00,WeatherDisplay:10.37,2013-02-20 07:25:00,
2013-02-20 01:30:00,28.8,12.0,29.20,North,4,0.0,2.3,49,0.00,CLR,,0.00,WeatherDisplay:10.37,2013-02-20 07:30:00,
2013-02-20 01:35:00,28.6,11.8,29.20,NNW,336,2.2,3.5,49,0.00,CLR,,0.00,WeatherDisplay:10.37,2013-02-20 07:35:00,
2013-02-20 01:40:00,28.6,11.8,29.20,North,357,2.2,3.5,49,0.00,CLR,,0.00,WeatherDisplay:10.37,2013-02-20 07:40:00,
2013-02-20 01:45:00,28.6,11.8,29.20,North,10,3.1,3.5,49,0.00,CLR,,0.00,WeatherDisplay:10.37,2013-02-20 07:45:00,
2013-02-20 01:50:00,28.4,11.6,29.20,NNE,23,3.6,5.4,49,0.00,CLR,,0.00,WeatherDisplay:10.37,2013-02-20 07:50:00,
2013-02-20 01:55:00,28.4,11.6,29.20,NE,41,4.9,5.8,49,0.00,CLR,,0.00,WeatherDisplay:10.37,2013-02-20 07:55:00,
2013-02-20 02:00:00,28.6,11.8,29.20,North,357,3.1,4.6,49,0.00,CLR,,0.00,WeatherDisplay:10.37,2013-02-20 08:00:00,
2013-02-20 02:05:00,28.4,11.6,29.20,North,5,2.7,3.5,49,0.00,CLR,,0.00,WeatherDisplay:10.37,2013-02-20 08:05:00,
2013-02-20 02:10:00,28.6,11.8,29.20,NNE,19,2.7,3.5,49,0.00,CLR,,0.00,WeatherDisplay:10.37,2013-02-20 08:10:00,
2013-02-20 02:15:00,28.6,11.8,29.20,North,3,2.7,3.5,49,0.00,CLR,,0.00,WeatherDisplay:10.37,2013-02-20 08:15:00,
2013-02-20 02:20:00,28.6,11.8,29.20,NNE,19,2.2,3.5,49,0.00,CLR,,0.00,WeatherDisplay:10.37,2013-02-20 08:20:00,
2013-02-20 02:25:00,28.4,11.6,29.20,NNE,24,3.6,3.6,49,0.00,CLR,,0.00,WeatherDisplay:10.37,2013-02-20 08:25:00,
2013-02-20 02:30:00,28.2,11.5,29.20,North,7,3.1,5.8,49,0.00,CLR,,0.00,WeatherDisplay:10.37,2013-02-20 08:30:00,
2013-02-20 02:35:00,28.4,11.6,29.20,North,357,3.1,5.8,49,0.00,CLR,,0.00,WeatherDisplay:10.37,2013-02-20 08:35:00,
2013-02-20 02:40:00,28.4,11.6,29.20,North,3,4.0,5.8,49,0.00,CLR,,0.00,WeatherDisplay:10.37,2013-02-20 08:40:00,
2013-02-20 02:45:00,28.4,11.6,29.20,North,357,5.4,5.8,49,0.00,CLR,,0.00,WeatherDisplay:10.37,2013-02-20 08:45:00,
2013-02-20 02:50:00,28.6,11.8,29.20,North,10,4.9,5.8,49,0.00,CLR,,0.00,WeatherDisplay:10.37,2013-02-20 08:50:00,
2013-02-20 02:55:00,28.4,11.6,29.20,North,9,4.5,5.8,49,0.00,CLR,,0.00,WeatherDisplay:10.37,2013-02-20 08:55:00,
2013-02-20 03:00:00,28.4,11.6,29.20,NE,39,3.6,3.6,49,0.00,CLR,,0.00,WeatherDisplay:10.37,2013-02-20 09:00:00,
2013-02-20 03:05:00,28.2,11.5,29.20,NNE,24,4.5,5.8,49,0.00,CLR,,0.00,WeatherDisplay:10.37,2013-02-20 09:05:00,
2013-02-20 03:10:00,28.2,11.5,29.20,NNE,28,4.9,5.8,49,0.00,CLR,,0.00,WeatherDisplay:10.37,2013-02-20 09:10:00,
2013-02-20 03:16:00,28.2,11.5,29.20,NNW,340,5.8,8.1,49,0.00,CLR,,0.00,WeatherDisplay:10.37,2013-02-20 09:16:00,
2013-02-20 03:21:00,28.0,11.3,29.20,NNE,14,6.3,9.2,49,0.00,CLR,,0.00,WeatherDisplay:10.37,2013-02-20 09:21:00,
2013-02-20 03:26:00,27.9,11.1,29.20,NNE,15,4.0,5.8,49,0.00,CLR,,0.00,WeatherDisplay:10.37,2013-02-20 09:26:00,
2013-02-20 03:31:00,27.9,11.1,29.20,North,3,4.9,5.8,49,0.00,CLR,,0.00,WeatherDisplay:10.37,2013-02-20 09:31:00,
2013-02-20 03:36:00,27.7,11.0,29.20,North,357,4.9,5.8,49,0.00,CLR,,0.00,WeatherDisplay:10.37,2013-02-20 09:36:00,
2013-02-20 03:41:00,27.5,10.8,29.20,North,0,5.4,5.8,49,0.00,CLR,,0.00,WeatherDisplay:10.37,2013-02-20 09:41:00,
2013-02-20 03:46:00,27.5,10.8,29.20,North,4,5.4,8.1,49,0.00,CLR,,0.00,WeatherDisplay:10.37,2013-02-20 09:46:00,
2013-02-20 03:51:00,27.3,10.6,29.20,North,353,4.5,5.8,49,0.00,CLR,,0.00,WeatherDisplay:10.37,2013-02-20 09:51:00,
2013-02-20 03:56:00,27.1,10.5,29.20,North,0,3.1,3.5,49,0.00,CLR,,0.00,WeatherDisplay:10.37,2013-02-20 09:56:00,
2013-02-20 04:01:00,27.0,10.3,29.20,North,0,3.6,5.8,49,0.00,CLR,,0.00,WeatherDisplay:10.37,2013-02-20 10:01:00,
2013-02-20 04:06:00,27.0,10.3,29.20,NNE,33,4.0,5.8,49,0.00,CLR,,0.00,WeatherDisplay:10.37,2013-02-20 10:06:00,
2013-02-20 04:11:00,26.6,10.4,29.20,North,353,3.6,5.8,50,0.00,CLR,,0.00,WeatherDisplay:10.37,2013-02-20 10:11:00,
2013-02-20 04:16:00,26.6,10.4,29.20,North,3,4.0,8.1,50,0.00,CLR,,0.00,WeatherDisplay:10.37,2013-02-20 10:16:00,
2013-02-20 04:21:00,26.4,10.3,29.20,North,6,3.6,3.6,50,0.00,CLR,,0.00,WeatherDisplay:10.37,2013-02-20 10:21:00,
2013-02-20 04:26:00,26.2,10.1,29.20,North,1,3.6,4.6,50,0.00,CLR,,0.00,WeatherDisplay:10.37,2013-02-20 10:26:00,
2013-02-20 04:31:00,26.1,9.9,29.20,NNE,16,4.0,5.8,50,0.00,CLR,,0.00,WeatherDisplay:10.37,2013-02-20 10:31:00,
2013-02-20 04:36:00,26.1,9.9,29.20,North,6,3.6,5.8,50,0.00,CLR,,0.00,WeatherDisplay:10.37,2013-02-20 10:36:00,
2013-02-20 04:41:00,26.1,9.9,29.20,North,3,3.1,4.6,50,0.00,CLR,,0.00,WeatherDisplay:10.37,2013-02-20 10:41:00,
2013-02-20 04:46:00,26.1,9.9,29.20,North,11,2.7,3.5,50,0.00,CLR,,0.00,WeatherDisplay:10.37,2013-02-20 10:46:00,
2013-02-20 04:51:00,26.1,9.9,29.20,NNE,27,0.0,3.5,50,0.00,CLR,,0.00,WeatherDisplay:10.37,2013-02-20 10:51:00,
2013-02-20 04:56:00,26.1,9.9,29.20,NNE,15,3.1,0.0,50,0.00,CLR,,0.00,WeatherDisplay:10.37,2013-02-20 10:56:00,
2013-02-20 05:01:00,26.1,9.9,29.20,WNW,303,2.2,3.5,50,0.00,CLR,,0.00,WeatherDisplay:10.37,2013-02-20 11:01:00,
2013-02-20 05:06:00,26.1,9.9,29.20,North,0,0.0,2.3,50,0.00,CLR,,0.00,WeatherDisplay:10.37,2013-02-20 11:06:00,
2013-02-20 05:11:00,26.1,9.9,29.20,NNE,13,3.1,3.5,50,0.00,CLR,,0.00,WeatherDisplay:10.37,2013-02-20 11:11:00,
2013-02-20 05:16:00,26.1,9.9,29.20,NNE,13,2.2,2.7,50,0.00,CLR,,0.00,WeatherDisplay:10.37,2013-02-20 11:16:00,
2013-02-20 05:21:00,26.1,9.9,29.20,NNE,13,0.0,0.0,50,0.00,CLR,,0.00,WeatherDisplay:10.37,2013-02-20 11:21:00,
2013-02-20 05:26:00,26.1,9.9,29.20,NNE,22,3.6,3.6,50,0.00,CLR,,0.00,WeatherDisplay:10.37,2013-02-20 11:26:00,
2013-02-20 05:31:00,25.9,9.8,29.20,North,4,3.1,3.5,50,0.00,CLR,,0.00,WeatherDisplay:10.37,2013-02-20 11:31:00,
2013-02-20 05:36:00,25.7,9.6,29.20,North,3,3.1,3.5,50,0.00,CLR,,0.00,WeatherDisplay:10.37,2013-02-20 11:36:00,
2013-02-20 05:41:00,25.5,9.4,29.20,NNE,33,2.7,5.8,50,0.00,CLR,,0.00,WeatherDisplay:10.37,2013-02-20 11:41:00,
2013-02-20 05:46:00,25.5,9.4,29.20,NNE,18,2.2,3.5,50,0.00,CLR,,0.00,WeatherDisplay:10.37,2013-02-20 11:46:00,
2013-02-20 05:51:00,25.5,9.4,29.20,North,5,3.1,4.6,50,0.00,CLR,,0.00,WeatherDisplay:10.37,2013-02-20 11:51:00,
2013-02-20 05:56:00,25.5,9.4,29.20,NE,34,2.2,3.5,50,0.00,CLR,,0.00,WeatherDisplay:10.37,2013-02-20 11:56:00,
2013-02-20 06:01:00,25.5,9.4,29.20,NNE,18,2.2,3.5,50,0.00,CLR,,0.00,WeatherDisplay:10.37,2013-02-20 12:01:00,
2013-02-20 06:06:00,25.5,9.4,29.20,NNE,19,3.1,5.8,50,0.00,CLR,,0.00,WeatherDisplay:10.37,2013-02-20 12:06:00,
2013-02-20 06:11:00,25.5,9.4,29.20,NE,37,0.0,2.3,50,0.00,CLR,,0.00,WeatherDisplay:10.37,2013-02-20 12:11:00,
2013-02-20 06:16:00,25.5,9.4,29.20,NE,37,0.0,0.0,50,0.00,CLR,,0.00,WeatherDisplay:10.37,2013-02-20 12:16:00,
2013-02-20 06:21:00,25.5,9.4,29.20,NE,37,0.0,0.0,50,0.00,CLR,,0.00,WeatherDisplay:10.37,2013-02-20 12:21:00,
2013-02-20 06:26:00,25.3,9.3,29.20,NE,37,0.0,2.3,50,0.00,CLR,,0.00,WeatherDisplay:10.37,2013-02-20 12:26:00,
2013-02-20 06:31:00,25.3,9.3,29.20,NNE,16,0.0,2.3,50,0.00,CLR,,0.00,WeatherDisplay:10.37,2013-02-20 12:31:00,
2013-02-20 06:36:00,25.5,9.4,29.20,NNE,17,0.0,3.5,50,0.00,CLR,,0.00,WeatherDisplay:10.37,2013-02-20 12:36:00,
2013-02-20 06:41:00,25.7,9.6,29.20,NNE,17,0.0,0.0,50,0.00,CLR,,0.00,WeatherDisplay:10.37,2013-02-20 12:41:00,
2013-02-20 06:46:00,26.1,9.9,29.20,NNE,17,2.2,2.3,50,0.00,CLR,,0.00,WeatherDisplay:10.37,2013-02-20 12:46:00,
2013-02-20 06:51:00,26.1,9.9,29.20,NNE,16,0.0,0.0,50,0.00,CLR,,0.00,WeatherDisplay:10.37,2013-02-20 12:51:00,
2013-02-20 06:56:00,26.1,9.9,29.20,NNE,17,0.0,0.0,50,0.00,CLR,,0.00,WeatherDisplay:10.37,2013-02-20 12:56:00,
2013-02-20 07:01:00,26.1,9.9,29.20,North,1,2.7,2.7,50,0.00,CLR,,0.00,WeatherDisplay:10.37,2013-02-20 13:01:00,
2013-02-20 07:06:00,26.1,9.9,29.20,NNE,15,2.7,3.5,50,0.00,CLR,,0.00,WeatherDisplay:10.37,2013-02-20 13:06:00,
2013-02-20 07:11:00,26.1,9.9,29.20,NNE,14,2.7,3.5,50,0.00,CLR,,0.00,WeatherDisplay:10.37,2013-02-20 13:11:00,
2013-02-20 07:16:00,26.1,9.9,29.20,NNE,19,2.2,4.6,50,0.00,CLR,,0.00,WeatherDisplay:10.37,2013-02-20 13:16:00,
2013-02-20 07:21:00,26.1,9.9,29.20,NNE,18,2.7,4.6,50,0.00,CLR,,0.00,WeatherDisplay:10.37,2013-02-20 13:21:00,
2013-02-20 07:26:00,26.1,9.9,29.20,NNE,22,3.1,5.8,50,0.00,CLR,,0.00,WeatherDisplay:10.37,2013-02-20 13:26:00,
2013-02-20 07:31:00,26.2,10.1,29.20,NNE,25,2.2,3.5,50,0.00,CLR,,0.00,WeatherDisplay:10.37,2013-02-20 13:31:00,
2013-02-20 07:36:00,26.2,10.1,29.20,NNE,29,3.6,3.6,50,0.00,CLR,,0.00,WeatherDisplay:10.37,2013-02-20 13:36:00,
2013-02-20 07:41:00,26.2,10.1,29.20,NNE,32,2.7,5.8,50,0.00,CLR,,0.00,WeatherDisplay:10.37,2013-02-20 13:41:00,
2013-02-20 07:46:00,26.4,10.3,29.20,NNE,14,2.7,4.6,50,0.00,CLR,,0.00,WeatherDisplay:10.37,2013-02-20 13:46:00,
2013-02-20 07:51:00,26.4,10.3,29.20,NE,45,0.0,3.5,50,0.00,CLR,,0.00,WeatherDisplay:10.37,2013-02-20 13:51:00,
2013-02-20 07:56:00,26.4,10.3,29.20,NNE,21,3.6,3.6,50,0.00,CLR,,0.00,WeatherDisplay:10.37,2013-02-20 13:56:00,
2013-02-20 08:01:00,26.6,10.4,29.20,North,11,2.2,3.5,50,0.00,CLR,,0.00,WeatherDisplay:10.37,2013-02-20 14:01:00,
2013-02-20 08:06:00,26.8,10.1,29.20,North,11,2.2,2.3,49,0.00,CLR,,0.00,WeatherDisplay:10.37,2013-02-20 14:06:00,
2013-02-20 08:11:00,27.0,10.3,29.20,North,357,2.2,3.1,49,0.00,CLR,,0.00,WeatherDisplay:10.37,2013-02-20 14:11:00,
2013-02-20 08:16:00,27.0,10.3,29.20,ENE,58,2.7,3.5,49,0.00,CLR,,0.00,WeatherDisplay:10.37,2013-02-20 14:16:00,
2013-02-20 08:21:00,27.0,10.3,29.20,NE,49,3.1,3.5,49,0.00,CLR,,0.00,WeatherDisplay:10.37,2013-02-20 14:21:00,
2013-02-20 08:26:00,27.1,10.5,29.20,NNE,28,0.0,2.3,49,0.00,CLR,,0.00,WeatherDisplay:10.37,2013-02-20 14:26:00,
2013-02-20 08:31:00,27.3,10.6,29.20,North,7,4.5,5.8,49,0.00,CLR,,0.00,WeatherDisplay:10.37,2013-02-20 14:31:00,
2013-02-20 08:36:00,27.1,10.5,29.20,North,4,3.1,4.6,49,0.00,CLR,,0.00,WeatherDisplay:10.37,2013-02-20 14:36:00,
2013-02-20 08:41:00,27.3,10.6,29.20,North,6,0.0,0.0,49,0.00,CLR,,0.00,WeatherDisplay:10.37,2013-02-20 14:41:00,
2013-02-20 08:46:00,27.5,10.8,29.20,North,357,2.7,3.5,49,0.00,CLR,,0.00,WeatherDisplay:10.37,2013-02-20 14:46:00,
2013-02-20 08:51:00,27.7,11.0,29.20,North,6,2.7,3.5,49,0.00,CLR,,0.00,WeatherDisplay:10.37,2013-02-20 14:51:00,
2013-02-20 08:56:00,27.7,11.0,29.20,NNE,17,3.6,3.6,49,0.00,CLR,,0.00,WeatherDisplay:10.37,2013-02-20 14:56:00,
2013-02-20 09:01:00,27.7,11.0,29.20,ENE,64,3.6,3.6,49,0.00,CLR,,0.00,WeatherDisplay:10.37,2013-02-20 15:01:00,
2013-02-20 09:06:00,27.7,11.0,29.20,NNE,20,2.7,3.5,49,0.00,CLR,,0.00,WeatherDisplay:10.37,2013-02-20 15:06:00,
2013-02-20 09:11:00,27.9,11.1,29.20,ENE,73,3.1,3.5,49,0.00,CLR,,0.00,WeatherDisplay:10.37,2013-02-20 15:11:00,
2013-02-20 09:16:00,27.9,11.1,29.20,NE,52,2.2,4.6,49,0.00,CLR,,0.00,WeatherDisplay:10.37,2013-02-20 15:16:00,
2013-02-20 09:21:00,27.9,11.1,29.20,NE,53,3.1,5.8,49,0.00,CLR,,0.00,WeatherDisplay:10.37,2013-02-20 15:21:00,
2013-02-20 09:26:00,27.9,11.1,29.20,NE,51,2.7,3.5,49,0.00,CLR,,0.00,WeatherDisplay:10.37,2013-02-20 15:26:00,
2013-02-20 09:31:00,27.9,11.1,29.20,NNE,22,3.1,3.5,49,0.00,CLR,,0.00,WeatherDisplay:10.37,2013-02-20 15:31:00,
2013-02-20 09:36:00,28.0,11.3,29.20,NE,36,3.1,3.5,49,0.00,CLR,,0.00,WeatherDisplay:10.37,2013-02-20 15:36:00,
2013-02-20 09:41:00,28.0,11.3,29.20,East,83,4.0,5.8,49,0.00,CLR,,0.00,WeatherDisplay:10.37,2013-02-20 15:41:00,
2013-02-20 09:46:00,28.0,11.3,29.20,North,4,3.1,3.5,49,0.00,CLR,,0.00,WeatherDisplay:10.37,2013-02-20 15:46:00,
2013-02-20 09:51:00,28.2,11.5,29.20,NNE,23,4.0,5.8,49,0.00,CLR,,0.00,WeatherDisplay:10.37,2013-02-20 15:51:00,
2013-02-20 09:56:00,28.4,11.6,29.20,North,6,2.7,3.5,49,0.00,CLR,,0.00,WeatherDisplay:10.37,2013-02-20 15:56:00,
2013-02-20 10:01:00,28.6,11.8,29.20,NNE,15,3.6,3.6,49,0.00,CLR,,0.00,WeatherDisplay:10.37,2013-02-20 16:01:00,
2013-02-20 10:06:00,28.8,12.0,29.20,NE,46,2.7,3.6,49,0.00,CLR,,0.00,WeatherDisplay:10.37,2013-02-20 16:06:00,
2013-02-20 10:11:00,28.8,12.0,29.20,ENE,64,3.1,3.5,49,0.00,CLR,,0.00,WeatherDisplay:10.37,2013-02-20 16:11:00,
2013-02-20 10:16:00,28.8,12.0,29.20,ENE,61,3.1,3.5,49,0.00,CLR,,0.00,WeatherDisplay:10.37,2013-02-20 16:16:00,
2013-02-20 10:21:00,28.6,11.8,29.20,North,357,3.6,4.6,49,0.00,CLR,,0.00,WeatherDisplay:10.37,2013-02-20 16:21:00,
2013-02-20 10:26:00,28.8,12.0,29.20,ENE,62,2.7,3.5,49,0.00,CLR,,0.00,WeatherDisplay:10.37,2013-02-20 16:26:00,
2013-02-20 10:31:00,28.9,12.1,29.20,NE,53,3.1,3.5,49,0.00,CLR,,0.00,WeatherDisplay:10.37,2013-02-20 16:31:00,
2013-02-20 10:36:00,29.1,12.3,29.20,NNE,14,0.0,0.0,49,0.00,CLR,,0.00,WeatherDisplay:10.37,2013-02-20 16:36:00,
2013-02-20 10:41:00,29.3,12.5,29.20,East,89,0.0,2.7,49,0.00,CLR,,0.00,WeatherDisplay:10.37,2013-02-20 16:41:00,
2013-02-20 10:46:00,29.1,12.3,29.20,NE,39,4.0,5.8,49,0.00,CLR,,0.00,WeatherDisplay:10.37,2013-02-20 16:46:00,
2013-02-20 10:51:00,29.1,12.3,29.20,North,0,2.7,3.5,49,0.00,CLR,,0.00,WeatherDisplay:10.37,2013-02-20 16:51:00,
2013-02-20 10:56:00,29.1,12.3,29.20,SE,126,2.2,3.5,49,0.00,CLR,,0.00,WeatherDisplay:10.37,2013-02-20 16:56:00,
2013-02-20 11:01:00,29.3,12.5,29.20,SE,139,0.0,0.0,49,0.00,CLR,,0.00,WeatherDisplay:10.37,2013-02-20 17:01:00,
2013-02-20 11:06:00,29.5,12.6,29.20,SSE,150,2.2,4.6,49,0.00,CLR,,0.00,WeatherDisplay:10.37,2013-02-20 17:06:00,
2013-02-20 11:11:00,29.7,12.8,29.20,SE,127,2.2,3.5,49,0.00,CLR,,0.00,WeatherDisplay:10.37,2013-02-20 17:11:00,
2013-02-20 11:16:00,29.8,13.0,29.20,SSE,149,3.1,5.8,49,0.00,CLR,,0.00,WeatherDisplay:10.37,2013-02-20 17:16:00,
2013-02-20 11:21:00,30.0,13.1,29.20,SSE,149,0.0,3.5,49,0.00,CLR,,0.00,WeatherDisplay:10.37,2013-02-20 17:21:00,
2013-02-20 11:26:00,30.2,13.3,29.20,ENE,68,0.0,3.5,49,0.00,CLR,,0.00,WeatherDisplay:10.37,2013-02-20 17:26:00,
2013-02-20 11:31:00,30.2,13.3,29.20,SE,127,0.0,0.0,49,0.00,CLR,,0.00,WeatherDisplay:10.37,2013-02-20 17:31:00,
2013-02-20 11:36:00,30.4,13.5,29.20,NE,39,2.7,3.5,49,0.00,CLR,,0.00,WeatherDisplay:10.37,2013-02-20 17:36:00,
2013-02-20 11:41:00,30.6,13.6,29.20,ESE,116,0.0,0.0,49,0.00,CLR,,0.00,WeatherDisplay:10.37,2013-02-20 17:41:00,
2013-02-20 11:46:00,30.9,14.0,29.20,NNE,12,0.0,4.0,49,0.00,CLR,,0.00,WeatherDisplay:10.37,2013-02-20 17:46:00,
2013-02-20 11:51:00,30.9,14.0,29.20,North,3,3.1,3.5,49,0.00,CLR,,0.00,WeatherDisplay:10.37,2013-02-20 17:51:00,
2013-02-20 11:56:00,30.7,13.8,29.20,ENE,70,0.0,3.5,49,0.00,CLR,,0.00,WeatherDisplay:10.37,2013-02-20 17:56:00,
2013-02-20 12:01:00,30.6,13.6,29.20,NNE,30,3.1,3.5,49,0.00,CLR,,0.00,WeatherDisplay:10.37,2013-02-20 18:01:00,
2013-02-20 12:06:00,30.6,13.6,29.20,ENE,61,3.6,3.6,49,0.00,CLR,,0.00,WeatherDisplay:10.37,2013-02-20 18:06:00,
2013-02-20 12:11:00,30.4,13.5,29.20,NNE,16,4.5,5.8,49,0.00,CLR,,0.00,WeatherDisplay:10.37,2013-02-20 18:11:00,
2013-02-20 12:16:00,30.6,13.6,29.20,ENE,60,4.0,4.6,49,0.00,CLR,,0.00,WeatherDisplay:10.37,2013-02-20 18:16:00,
2013-02-20 12:21:00,30.7,13.8,29.20,ENE,69,3.1,3.5,49,0.00,CLR,,0.00,WeatherDisplay:10.37,2013-02-20 18:21:00,
2013-02-20 12:26:00,31.1,14.1,29.20,ENE,67,3.1,4.6,49,0.00,CLR,,0.00,WeatherDisplay:10.37,2013-02-20 18:26:00,
2013-02-20 12:31:00,31.1,14.1,29.20,ESE,116,3.6,4.6,49,0.00,CLR,,0.00,WeatherDisplay:10.37,2013-02-20 18:31:00,
2013-02-20 12:36:00,31.1,14.1,29.20,NE,42,3.1,3.5,49,0.00,CLR,,0.00,WeatherDisplay:10.37,2013-02-20 18:36:00,
2013-02-20 12:41:00,31.1,14.1,29.20,NE,56,3.6,3.6,49,0.00,CLR,,0.00,WeatherDisplay:10.37,2013-02-20 18:41:00,
2013-02-20 12:46:00,31.5,14.5,29.20,ENE,68,4.0,4.6,49,0.00,CLR,,0.00,WeatherDisplay:10.37,2013-02-20 18:46:00,
2013-02-20 12:51:00,31.5,14.5,29.20,ENE,65,3.1,5.8,49,0.00,CLR,,0.00,WeatherDisplay:10.37,2013-02-20 18:51:00,
2013-02-20 12:56:00,31.5,14.5,29.20,NE,37,4.0,4.6,49,0.00,CLR,,0.00,WeatherDisplay:10.37,2013-02-20 18:56:00,
2013-02-20 13:01:00,31.8,14.8,29.20,SE,137,3.1,5.8,49,0.00,CLR,,0.00,WeatherDisplay:10.37,2013-02-20 19:01:00,
2013-02-20 13:06:00,32.7,15.6,29.20,ENE,69,6.3,7.6,49,0.00,CLR,,0.00,WeatherDisplay:10.37,2013-02-20 19:06:00,
2013-02-20 13:11:00,33.3,16.1,29.20,NE,52,5.4,8.1,49,0.00,CLR,,0.00,WeatherDisplay:10.37,2013-02-20 19:11:00,
2013-02-20 13:16:00,33.3,16.1,29.20,NNE,14,4.5,4.5,49,0.00,CLR,,0.00,WeatherDisplay:10.37,2013-02-20 19:16:00,
2013-02-20 13:21:00,33.4,16.3,29.20,East,95,6.3,6.3,49,0.00,CLR,,0.00,WeatherDisplay:10.37,2013-02-20 19:21:00,
2013-02-20 13:26:00,33.8,16.2,29.20,NNE,27,5.8,8.1,48,0.00,CLR,,0.00,WeatherDisplay:10.37,2013-02-20 19:26:00,
2013-02-20 13:31:00,33.8,16.2,29.20,NE,36,5.8,8.1,48,0.00,CLR,,0.00,WeatherDisplay:10.37,2013-02-20 19:31:00,
2013-02-20 13:36:00,33.8,16.2,29.20,North,10,4.9,8.1,48,0.00,CLR,,0.00,WeatherDisplay:10.37,2013-02-20 19:36:00,
2013-02-20 13:41:00,34.0,16.3,29.20,NE,46,2.7,4.6,48,0.00,CLR,,0.00,WeatherDisplay:10.37,2013-02-20 19:41:00,
2013-02-20 13:46:00,34.3,16.7,29.20,ENE,61,4.5,5.8,48,0.00,CLR,,0.00,WeatherDisplay:10.37,2013-02-20 19:46:00,
2013-02-20 13:51:00,34.5,16.8,29.20,ENE,67,4.0,5.8,48,0.00,CLR,,0.00,WeatherDisplay:10.37,2013-02-20 19:51:00,
2013-02-20 13:56:00,34.3,16.7,29.20,NE,35,4.0,5.8,48,0.00,CLR,,0.00,WeatherDisplay:10.37,2013-02-20 19:56:00,
2013-02-20 14:01:00,34.5,16.8,29.20,ENE,74,3.6,4.6,48,0.00,CLR,,0.00,WeatherDisplay:10.37,2013-02-20 20:01:00,
2013-02-20 14:06:00,34.3,16.7,29.20,East,97,2.2,3.5,48,0.00,CLR,,0.00,WeatherDisplay:10.37,2013-02-20 20:06:00,
2013-02-20 14:11:00,34.3,16.7,29.20,ENE,60,4.0,5.8,48,0.00,CLR,,0.00,WeatherDisplay:10.37,2013-02-20 20:11:00,
2013-02-20 14:16:00,34.3,16.7,29.20,ESE,114,4.9,4.9,48,0.00,CLR,,0.00,WeatherDisplay:10.37,2013-02-20 20:16:00,
2013-02-20 14:21:00,34.3,16.7,29.20,East,95,2.7,3.5,48,0.00,CLR,,0.00,WeatherDisplay:10.37,2013-02-20 20:21:00,
2013-02-20 14:26:00,34.3,16.7,29.20,SE,126,3.1,3.5,48,0.00,CLR,,0.00,WeatherDisplay:10.37,2013-02-20 20:26:00,
2013-02-20 14:31:00,34.3,16.7,29.20,ENE,70,2.2,3.5,48,0.00,CLR,,0.00,WeatherDisplay:10.37,2013-02-20 20:31:00,
2013-02-20 14:36:00,34.5,16.8,29.20,SE,129,2.2,3.5,48,0.00,CLR,,0.00,WeatherDisplay:10.37,2013-02-20 20:36:00,
2013-02-20 14:41:00,34.7,17.0,29.20,ESE,107,4.0,8.1,48,0.00,CLR,,0.00,WeatherDisplay:10.37,2013-02-20 20:41:00,
2013-02-20 14:46:00,34.9,17.2,29.20,East,83,4.5,4.5,48,0.00,CLR,,0.00,WeatherDisplay:10.37,2013-02-20 20:46:00,
2013-02-20 14:51:00,35.1,17.3,29.20,ENE,76,2.2,4.6,48,0.00,CLR,,0.00,WeatherDisplay:10.37,2013-02-20 20:51:00,
2013-02-20 14:56:00,34.9,17.2,29.20,ESE,113,4.5,4.9,48,0.00,CLR,,0.00,WeatherDisplay:10.37,2013-02-20 20:56:00,
2013-02-20 15:01:00,34.7,17.0,29.20,ESE,117,3.1,3.5,48,0.00,CLR,,0.00,WeatherDisplay:10.37,2013-02-20 21:01:00,
2013-02-20 15:06:00,34.5,16.8,29.20,ENE,74,2.2,5.8,48,0.00,CLR,,0.00,WeatherDisplay:10.37,2013-02-20 21:06:00,
2013-02-20 15:11:00,34.3,16.7,29.20,ENE,76,3.1,5.8,48,0.00,CLR,,0.00,WeatherDisplay:10.37,2013-02-20 21:11:00,
2013-02-20 15:16:00,34.2,16.5,29.20,ENE,69,0.0,2.3,48,0.00,CLR,,0.00,WeatherDisplay:10.37,2013-02-20 21:16:00,
2013-02-20 15:21:00,34.2,16.5,29.20,ESE,105,2.2,3.5,48,0.00,CLR,,0.00,WeatherDisplay:10.37,2013-02-20 21:21:00,
2013-02-20 15:26:00,34.3,16.7,29.20,ENE,64,3.6,3.6,48,0.00,CLR,,0.00,WeatherDisplay:10.37,2013-02-20 21:26:00,
2013-02-20 15:31:00,34.3,16.7,29.20,ESE,120,3.6,4.6,48,0.00,CLR,,0.00,WeatherDisplay:10.37,2013-02-20 21:31:00,
2013-02-20 15:36:00,34.2,16.5,29.20,SSE,150,2.7,5.8,48,0.00,CLR,,0.00,WeatherDisplay:10.37,2013-02-20 21:36:00,
2013-02-20 15:41:00,34.0,16.3,29.20,SE,134,4.0,6.3,48,0.00,CLR,,0.00,WeatherDisplay:10.37,2013-02-20 21:41:00,
2013-02-20 15:46:00,33.8,16.2,29.20,SSE,167,4.5,4.6,48,0.00,CLR,,0.00,WeatherDisplay:10.37,2013-02-20 21:46:00,
2013-02-20 15:51:00,33.6,16.5,29.20,ESE,123,4.0,5.8,49,0.00,CLR,,0.00,WeatherDisplay:10.37,2013-02-20 21:51:00,
2013-02-20 15:56:00,33.6,16.5,29.20,ESE,119,2.7,5.8,49,0.00,CLR,,0.00,WeatherDisplay:10.37,2013-02-20 21:56:00,
2013-02-20 16:01:00,33.3,16.1,29.20,SE,146,3.6,3.6,49,0.00,CLR,,0.00,WeatherDisplay:10.37,2013-02-20 22:01:00,
2013-02-20 16:06:00,33.1,16.0,29.20,SE,127,2.7,4.9,49,0.00,CLR,,0.00,WeatherDisplay:10.37,2013-02-20 22:06:00,
2013-02-20 16:11:00,32.9,15.8,29.20,SSE,148,2.2,5.8,49,0.00,CLR,,0.00,WeatherDisplay:10.37,2013-02-20 22:11:00,
2013-02-20 16:16:00,32.7,15.6,29.20,ESE,106,2.7,5.8,49,0.00,CLR,,0.00,WeatherDisplay:10.37,2013-02-20 22:16:00,
2013-02-20 16:21:00,32.5,15.5,29.20,SE,145,2.2,3.5,49,0.00,CLR,,0.00,WeatherDisplay:10.37,2013-02-20 22:21:00,
2013-02-20 16:26:00,32.4,15.3,29.20,ESE,122,3.6,4.6,49,0.00,CLR,,0.00,WeatherDisplay:10.37,2013-02-20 22:26:00,
2013-02-20 16:31:00,32.4,15.3,29.20,ENE,58,2.7,3.5,49,0.00,CLR,,0.00,WeatherDisplay:10.37,2013-02-20 22:31:00,
2013-02-20 16:36:00,32.0,15.0,29.20,ESE,121,2.2,3.5,49,0.00,CLR,,0.00,WeatherDisplay:10.37,2013-02-20 22:36:00,
2013-02-20 16:41:00,32.0,15.0,29.20,SE,131,0.0,3.5,49,0.00,CLR,,0.00,WeatherDisplay:10.37,2013-02-20 22:41:00,
2013-02-20 16:46:00,32.0,15.0,29.20,ESE,116,0.0,0.0,49,0.00,CLR,,0.00,WeatherDisplay:10.37,2013-02-20 22:46:00,
2013-02-20 16:51:00,32.0,15.0,29.20,ESE,117,3.1,3.5,49,0.00,CLR,,0.00,WeatherDisplay:10.37,2013-02-20 22:51:00,
2013-02-20 16:56:00,31.8,14.8,29.20,ESE,113,2.7,3.5,49,0.00,CLR,,0.00,WeatherDisplay:10.37,2013-02-20 22:56:00,
2013-02-20 17:01:00,31.8,14.8,29.20,SE,136,2.2,3.5,49,0.00,CLR,,0.00,WeatherDisplay:10.37,2013-02-20 23:01:00,
2013-02-20 17:06:00,31.6,14.6,29.20,SE,136,0.0,3.5,49,0.00,CLR,,0.00,WeatherDisplay:10.37,2013-02-20 23:06:00,
2013-02-20 17:11:00,31.5,14.5,29.20,SE,145,2.2,2.3,49,0.00,CLR,,0.00,WeatherDisplay:10.37,2013-02-20 23:11:00,
2013-02-20 17:16:00,31.5,14.5,29.20,ESE,123,0.0,3.5,49,0.00,CLR,,0.00,WeatherDisplay:10.37,2013-02-20 23:16:00,
2013-02-20 17:21:00,31.3,14.3,29.20,ENE,70,2.7,3.5,49,0.00,CLR,,0.00,WeatherDisplay:10.37,2013-02-20 23:21:00,
2013-02-20 17:26:00,31.1,14.1,29.20,ENE,70,0.0,2.3,49,0.00,CLR,,0.00,WeatherDisplay:10.37,2013-02-20 23:26:00,
2013-02-20 17:31:00,30.9,14.0,29.20,ESE,108,3.6,3.6,49,0.00,CLR,,0.00,WeatherDisplay:10.37,2013-02-20 23:31:00,
2013-02-20 17:36:00,30.7,13.8,29.20,East,91,2.7,5.8,49,0.00,CLR,,0.00,WeatherDisplay:10.37,2013-02-20 23:36:00,
2013-02-20 17:41:00,30.7,13.8,29.20,East,91,0.0,3.5,49,0.00,CLR,,0.00,WeatherDisplay:10.37,2013-02-20 23:41:00,
2013-02-20 17:46:00,30.6,13.6,29.20,SE,130,0.0,0.0,49,0.00,CLR,,0.00,WeatherDisplay:10.37,2013-02-20 23:46:00,
2013-02-20 17:51:00,30.7,13.8,29.20,SSE,163,2.2,3.5,49,0.00,CLR,,0.00,WeatherDisplay:10.37,2013-02-20 23:51:00,
2013-02-20 17:56:00,30.6,13.6,29.20,SE,129,0.0,2.3,49,0.00,CLR,,0.00,WeatherDisplay:10.37,2013-02-20 23:56:00,
2013-02-20 18:01:00,30.6,13.6,29.20,East,99,2.7,5.8,49,0.00,CLR,,0.00,WeatherDisplay:10.37,2013-02-21 00:01:00,
2013-02-20 18:06:00,30.6,13.6,29.20,ESE,112,2.7,3.5,49,0.00,CLR,,0.00,WeatherDisplay:10.37,2013-02-21 00:06:00,
2013-02-20 18:11:00,30.4,13.5,29.20,East,92,2.2,2.3,49,0.00,CLR,,0.00,WeatherDisplay:10.37,2013-02-21 00:11:00,
2013-02-20 18:16:00,30.4,13.5,29.20,ENE,65,2.2,3.5,49,0.00,CLR,,0.00,WeatherDisplay:10.37,2013-02-21 00:16:00,
2013-02-20 18:21:00,30.2,13.3,29.20,ENE,60,2.2,3.6,49,0.00,CLR,,0.00,WeatherDisplay:10.37,2013-02-21 00:21:00,
2013-02-20 18:26:00,30.2,13.3,29.20,ENE,78,2.2,3.1,49,0.00,CLR,,0.00,WeatherDisplay:10.37,2013-02-21 00:26:00,
2013-02-20 18:31:00,30.2,13.3,29.20,ENE,71,2.7,3.5,49,0.00,CLR,,0.00,WeatherDisplay:10.37,2013-02-21 00:31:00,
2013-02-20 18:36:00,30.0,13.1,29.20,East,79,2.2,2.3,49,0.00,CLR,,0.00,WeatherDisplay:10.37,2013-02-21 00:36:00,
2013-02-20 18:41:00,30.0,13.1,29.20,ENE,61,3.1,3.1,49,0.00,CLR,,0.00,WeatherDisplay:10.37,2013-02-21 00:41:00,
2013-02-20 18:46:00,30.0,13.1,29.20,ENE,64,2.2,3.5,49,0.00,CLR,,0.00,WeatherDisplay:10.37,2013-02-21 00:46:00,
2013-02-20 18:51:00,30.0,13.1,29.20,ENE,72,3.6,4.9,49,0.00,CLR,,0.00,WeatherDisplay:10.37,2013-02-21 00:51:00,
2013-02-20 18:56:00,30.0,13.1,29.20,ENE,60,3.1,5.4,49,0.00,CLR,,0.00,WeatherDisplay:10.37,2013-02-21 00:56:00,
2013-02-20 19:01:00,30.0,13.1,29.20,ENE,69,3.1,4.6,49,0.00,CLR,,0.00,WeatherDisplay:10.37,2013-02-21 01:01:00,
2013-02-20 19:06:00,30.0,13.1,29.20,ENE,74,2.7,3.1,49,0.00,CLR,,0.00,WeatherDisplay:10.37,2013-02-21 01:06:00,
2013-02-20 19:11:00,30.0,13.1,29.20,ENE,64,2.7,5.8,49,0.00,CLR,,0.00,WeatherDisplay:10.37,2013-02-21 01:11:00,
2013-02-20 19:16:00,30.0,13.1,29.20,ENE,72,0.0,3.5,49,0.00,CLR,,0.00,WeatherDisplay:10.37,2013-02-21 01:16:00,
2013-02-20 19:21:00,30.0,13.1,29.20,ENE,70,2.7,3.5,49,0.00,CLR,,0.00,WeatherDisplay:10.37,2013-02-21 01:21:00,
2013-02-20 19:26:00,30.0,13.1,29.20,NE,49,0.0,0.0,49,0.00,CLR,,0.00,WeatherDisplay:10.37,2013-02-21 01:26:00,
2013-02-20 19:31:00,30.2,13.3,29.20,ENE,73,0.0,0.0,49,0.00,CLR,,0.00,WeatherDisplay:10.37,2013-02-21 01:31:00,
2013-02-20 19:36:00,30.2,13.3,29.20,East,79,2.2,0.0,49,0.00,CLR,,0.00,WeatherDisplay:10.37,2013-02-21 01:36:00,
2013-02-20 19:41:00,30.2,13.3,29.20,East,86,0.0,0.0,49,0.00,CLR,,0.00,WeatherDisplay:10.37,2013-02-21 01:41:00,
2013-02-20 19:46:00,30.2,13.3,29.20,ENE,73,3.1,3.5,49,0.00,CLR,,0.00,WeatherDisplay:10.37,2013-02-21 01:46:00,
2013-02-20 19:51:00,30.2,13.3,29.20,East,85,2.7,3.5,49,0.00,CLR,,0.00,WeatherDisplay:10.37,2013-02-21 01:51:00,
2013-02-20 19:56:00,30.2,13.3,29.20,East,83,0.0,2.3,49,0.00,CLR,,0.00,WeatherDisplay:10.37,2013-02-21 01:56:00,
2013-02-20 20:01:00,30.2,13.3,29.20,SE,137,2.2,3.5,49,0.00,CLR,,0.00,WeatherDisplay:10.37,2013-02-21 02:01:00,
2013-02-20 20:06:00,30.2,13.3,29.20,ENE,59,3.1,3.5,49,0.00,CLR,,0.00,WeatherDisplay:10.37,2013-02-21 02:06:00,
2013-02-20 20:11:00,30.2,13.3,29.20,East,100,3.6,5.8,49,0.00,CLR,,0.00,WeatherDisplay:10.37,2013-02-21 02:11:00,
2013-02-20 20:16:00,30.2,13.3,29.20,ENE,77,2.2,3.5,49,0.00,CLR,,0.00,WeatherDisplay:10.37,2013-02-21 02:16:00,
2013-02-20 20:21:00,30.2,13.3,29.20,ESE,119,2.2,3.5,49,0.00,CLR,,0.00,WeatherDisplay:10.37,2013-02-21 02:21:00,
2013-02-20 20:26:00,30.2,13.3,29.20,ESE,115,2.7,3.5,49,0.00,CLR,,0.00,WeatherDisplay:10.37,2013-02-21 02:26:00,
2013-02-20 20:31:00,30.2,13.3,29.20,ENE,70,3.1,3.5,49,0.00,CLR,,0.00,WeatherDisplay:10.37,2013-02-21 02:31:00,
2013-02-20 20:36:00,30.2,13.3,29.20,ESE,114,2.7,3.5,49,0.00,CLR,,0.00,WeatherDisplay:10.37,2013-02-21 02:36:00,
2013-02-20 20:41:00,30.2,13.3,29.20,ENE,60,4.5,5.4,49,0.00,CLR,,0.00,WeatherDisplay:10.37,2013-02-21 02:41:00,
2013-02-20 20:46:00,30.2,13.3,29.20,East,101,2.2,3.5,49,0.00,CLR,,0.00,WeatherDisplay:10.37,2013-02-21 02:46:00,
2013-02-20 20:51:00,30.2,13.3,29.20,ENE,71,3.1,3.6,49,0.00,CLR,,0.00,WeatherDisplay:10.37,2013-02-21 02:51:00,
2013-02-20 20:56:00,30.2,13.3,29.20,ENE,70,3.6,4.6,49,0.00,CLR,,0.00,WeatherDisplay:10.37,2013-02-21 02:56:00,
2013-02-20 21:01:00,30.2,13.3,29.20,ENE,76,4.5,5.8,49,0.00,CLR,,0.00,WeatherDisplay:10.37,2013-02-21 03:01:00,
2013-02-20 21:06:00,30.2,13.3,29.20,ENE,75,2.7,3.5,49,0.00,CLR,,0.00,WeatherDisplay:10.37,2013-02-21 03:06:00,
2013-02-20 21:11:00,30.2,13.3,29.20,NE,51,4.0,4.6,49,0.00,CLR,,0.00,WeatherDisplay:10.37,2013-02-21 03:11:00,
2013-02-20 21:16:00,30.2,13.3,29.20,ENE,62,3.6,4.9,49,0.00,CLR,,0.00,WeatherDisplay:10.37,2013-02-21 03:16:00,
2013-02-20 21:21:00,30.2,13.3,29.20,ENE,63,2.7,3.5,49,0.00,CLR,,0.00,WeatherDisplay:10.37,2013-02-21 03:21:00,
2013-02-20 21:26:00,30.2,13.3,29.20,ENE,68,4.0,4.6,49,0.00,CLR,,0.00,WeatherDisplay:10.37,2013-02-21 03:26:00,
2013-02-20 21:31:00,30.2,13.3,29.20,ESE,102,4.0,5.8,49,0.00,CLR,,0.00,WeatherDisplay:10.37,2013-02-21 03:31:00,
2013-02-20 21:36:00,30.2,13.3,29.20,ENE,62,3.1,5.8,49,0.00,CLR,,0.00,WeatherDisplay:10.37,2013-02-21 03:36:00,
2013-02-20 21:41:00,30.2,13.3,29.20,ESE,117,2.2,3.5,49,0.00,CLR,,0.00,WeatherDisplay:10.37,2013-02-21 03:41:00,
2013-02-20 21:46:00,30.2,13.3,29.20,East,86,0.0,3.5,49,0.00,CLR,,0.00,WeatherDisplay:10.37,2013-02-21 03:46:00,
2013-02-20 21:51:00,30.2,13.3,29.20,NE,56,3.6,5.8,49,0.00,CLR,,0.00,WeatherDisplay:10.37,2013-02-21 03:51:00,
2013-02-20 21:56:00,30.2,13.3,29.20,NE,48,3.6,4.6,49,0.00,CLR,,0.00,WeatherDisplay:10.37,2013-02-21 03:56:00,
2013-02-20 22:01:00,30.2,13.3,29.20,ENE,73,2.7,3.5,49,0.00,CLR,,0.00,WeatherDisplay:10.37,2013-02-21 04:01:00,
2013-02-20 22:06:00,30.2,13.3,29.20,SE,133,3.1,4.6,49,0.00,CLR,,0.00,WeatherDisplay:10.37,2013-02-21 04:06:00,
2013-02-20 22:11:00,30.2,13.3,29.20,ENE,69,3.1,3.5,49,0.00,CLR,,0.00,WeatherDisplay:10.37,2013-02-21 04:11:00,
2013-02-20 22:16:00,30.2,13.3,29.20,East,83,4.0,4.0,49,0.00,CLR,,0.00,WeatherDisplay:10.37,2013-02-21 04:16:00,
2013-02-20 22:21:00,30.2,13.3,29.20,ENE,64,5.4,8.1,49,0.00,CLR,,0.00,WeatherDisplay:10.37,2013-02-21 04:21:00,
2013-02-20 22:26:00,30.2,13.3,29.20,ENE,76,0.0,3.5,49,0.00,CLR,,0.00,WeatherDisplay:10.37,2013-02-21 04:26:00,
2013-02-20 22:31:00,30.2,13.3,29.20,ENE,73,3.1,4.6,49,0.00,CLR,,0.00,WeatherDisplay:10.37,2013-02-21 04:31:00,
2013-02-20 22:36:00,30.2,13.3,29.20,East,88,4.5,5.8,49,0.00,CLR,,0.00,WeatherDisplay:10.37,2013-02-21 04:36:00,
2013-02-20 22:41:00,30.2,13.3,29.20,ENE,74,3.1,3.5,49,0.00,CLR,,0.00,WeatherDisplay:10.37,2013-02-21 04:41:00,
2013-02-20 22:46:00,30.2,13.3,29.20,ENE,65,4.9,4.9,49,0.00,CLR,,0.00,WeatherDisplay:10.37,2013-02-21 04:46:00,
2013-02-20 22:51:00,30.2,13.3,29.20,ENE,78,3.6,5.8,49,0.00,CLR,,0.00,WeatherDisplay:10.37,2013-02-21 04:51:00,
2013-02-20 22:56:00,30.2,13.3,29.20,East,90,4.0,5.8,49,0.00,CLR,,0.00,WeatherDisplay:10.37,2013-02-21 04:56:00,
2013-02-20 23:00:00,30.2,13.3,29.20,NNE,22,2.7,3.5,49,0.00,CLR,,0.00,WeatherDisplay:10.37,2013-02-21 05:00:00,
2013-02-20 23:01:00,30.2,13.3,29.20,ENE,57,3.1,3.5,49,0.00,CLR,,0.00,WeatherDisplay:10.37,2013-02-21 05:01:00,
2013-02-20 23:02:00,30.2,13.3,29.20,ENE,70,0.0,3.5,49,0.00,CLR,,0.00,WeatherDisplay:10.37,2013-02-21 05:02:00,
2013-02-20 23:07:00,30.2,13.3,29.20,East,81,4.9,6.9,49,0.00,CLR,,0.00,WeatherDisplay:10.37,2013-02-21 05:07:00,
2013-02-20 23:12:00,30.0,13.1,29.20,East,79,4.5,5.8,49,0.00,CLR,,0.00,WeatherDisplay:10.37,2013-02-21 05:12:00,
2013-02-20 23:17:00,30.0,13.1,29.20,East,99,4.0,5.8,49,0.00,CLR,,0.00,WeatherDisplay:10.37,2013-02-21 05:17:00,
2013-02-20 23:22:00,30.0,13.1,29.20,ENE,68,2.2,4.6,49,0.00,CLR,,0.00,WeatherDisplay:10.37,2013-02-21 05:22:00,
2013-02-20 23:27:00,30.2,13.3,29.20,East,85,3.6,5.8,49,0.00,CLR,,0.00,WeatherDisplay:10.37,2013-02-21 05:27:00,
2013-02-20 23:32:00,30.2,13.3,29.20,East,98,4.5,5.8,49,0.00,CLR,,0.00,WeatherDisplay:10.37,2013-02-21 05:32:00,
2013-02-20 23:37:00,30.0,13.1,29.20,ESE,107,2.7,3.5,49,0.00,CLR,,0.00,WeatherDisplay:10.37,2013-02-21 05:37:00,
2013-02-20 23:42:00,30.0,13.1,29.20,ENE,69,4.0,4.0,49,0.00,CLR,,0.00,WeatherDisplay:10.37,2013-02-21 05:42:00,
2013-02-20 23:47:00,29.8,13.0,29.20,ENE,64,0.0,2.3,49,0.00,CLR,,0.00,WeatherDisplay:10.37,2013-02-21 05:47:00,
2013-02-20 23:53:00,29.8,13.0,29.20,ENE,70,4.0,4.0,49,0.00,CLR,,0.00,WeatherDisplay:10.37,2013-02-21 05:53:00,
2013-02-20 23:58:00,30.0,13.1,29.20,NE,54,2.2,4.0,49,0.00,CLR,,0.00,WeatherDisplay:10.37,2013-02-21 05:58:00,